DAL700 KFLL-KABQ

Flight info

Callsign DAL700
Flight time N/A
Altitude 31000
Route BNICE2 DOLIE Y280 REDFN Q105 HRV J58 LURIC/N0468F340 J58 FUZ DCT TXO DCT RECKN COLTR4
Aircraft B739/M-VGDW/C

Departure

Time 2026-05-04 00:21
Airport Fort Lauderdale Hollywood International Airport (KFLL)

Arrival

Time N/A
Airport Albuquerque International Sunport (KABQ)
Time Latitude Longitude Altitude Speed Heading
2026-05-03 23:00 26.07337 -80.14413 18 ft 0 kts 105°
2026-05-03 23:13 26.07342 -80.14433 18 ft 3 kts 98°
2026-05-03 23:14 26.07341 -80.14455 19 ft 3 kts 71°
2026-05-03 23:14 26.07335 -80.14475 20 ft 3 kts 64°
2026-05-03 23:14 26.07324 -80.14492 20 ft 3 kts 36°
2026-05-03 23:14 26.07312 -80.14499 22 ft 0 kts 14°
2026-05-03 23:18 26.07314 -80.14499 22 ft 0 kts 14°
2026-05-03 23:24 26.07367 -80.14492 18 ft 14 kts
2026-05-03 23:24 26.07461 -80.14493 19 ft 12 kts 345°
2026-05-03 23:24 26.07489 -80.14570 19 ft 12 kts 270°
2026-05-03 23:25 26.07488 -80.14698 17 ft 20 kts 270°
2026-05-03 23:25 26.07488 -80.14851 14 ft 19 kts 270°
2026-05-03 23:25 26.07489 -80.14999 14 ft 19 kts 270°
2026-05-03 23:25 26.07489 -80.15143 13 ft 18 kts 270°
2026-05-03 23:26 26.07490 -80.15278 10 ft 18 kts 270°
2026-05-03 23:26 26.07491 -80.15412 10 ft 17 kts 272°
2026-05-03 23:26 26.07493 -80.15541 12 ft 16 kts 270°
2026-05-03 23:26 26.07492 -80.15659 13 ft 12 kts 269°
2026-05-03 23:27 26.07492 -80.15700 13 ft 0 kts 270°
2026-05-03 23:31 26.07492 -80.15738 13 ft 10 kts 270°
2026-05-03 23:31 26.07493 -80.15785 13 ft 0 kts 270°
2026-05-03 23:37 26.07493 -80.15812 13 ft 12 kts 270°
2026-05-03 23:37 26.07493 -80.15858 14 ft 0 kts 270°
2026-05-03 23:39 26.07493 -80.15871 14 ft 6 kts 270°
2026-05-03 23:39 26.07494 -80.15916 15 ft 0 kts 270°
2026-05-03 23:44 26.07494 -80.15931 16 ft 7 kts 270°
2026-05-03 23:44 26.07494 -80.15972 17 ft 0 kts 270°
2026-05-03 23:47 26.07494 -80.15973 17 ft 1 kts 270°
2026-05-03 23:47 26.07494 -80.15991 17 ft 0 kts 270°
2026-05-03 23:49 26.07494 -80.15999 17 ft 5 kts 270°
2026-05-03 23:50 26.07494 -80.16039 18 ft 5 kts 270°
2026-05-03 23:50 26.07494 -80.16065 18 ft 5 kts 270°
2026-05-03 23:50 26.07494 -80.16087 19 ft 0 kts 270°
2026-05-03 23:53 26.07494 -80.16107 19 ft 4 kts 270°
2026-05-03 23:53 26.07494 -80.16114 19 ft 0 kts 270°
2026-05-03 23:54 26.07494 -80.16146 19 ft 2 kts 270°
2026-05-03 23:55 26.07495 -80.16171 19 ft 0 kts 271°
2026-05-03 23:57 26.07495 -80.16185 19 ft 6 kts 270°
2026-05-03 23:58 26.07496 -80.16231 18 ft 6 kts 270°
2026-05-03 23:58 26.07496 -80.16245 18 ft 0 kts 270°
2026-05-04 00:00 26.07496 -80.16252 18 ft 7 kts 270°
2026-05-04 00:00 26.07496 -80.16289 18 ft 0 kts 270°
2026-05-04 00:02 26.07496 -80.16301 17 ft 0 kts 270°
2026-05-04 00:02 26.07496 -80.16302 17 ft 0 kts 270°
2026-05-04 00:03 26.07496 -80.16326 17 ft 2 kts 270°
2026-05-04 00:03 26.07496 -80.16341 17 ft 0 kts 270°
2026-05-04 00:04 26.07496 -80.16370 17 ft 3 kts 270°
2026-05-04 00:04 26.07496 -80.16377 17 ft 0 kts 270°
2026-05-04 00:05 26.07496 -80.16390 17 ft 0 kts 270°
2026-05-04 00:06 26.07497 -80.16422 17 ft 9 kts 270°
2026-05-04 00:06 26.07497 -80.16491 18 ft 8 kts 271°
2026-05-04 00:07 26.07497 -80.16517 18 ft 0 kts 271°
2026-05-04 00:07 26.07497 -80.16528 18 ft 5 kts 271°
2026-05-04 00:08 26.07498 -80.16563 17 ft 0 kts 271°
2026-05-04 00:10 26.07498 -80.16576 17 ft 5 kts 270°
2026-05-04 00:10 26.07500 -80.16601 17 ft 2 kts 277°
2026-05-04 00:10 26.07502 -80.16610 17 ft 0 kts 284°
2026-05-04 00:12 26.07510 -80.16626 18 ft 0 kts 309°
2026-05-04 00:12 26.07531 -80.16638 16 ft 4 kts 346°
2026-05-04 00:12 26.07534 -80.16639 16 ft 0 kts 346°
2026-05-04 00:17 26.07535 -80.16639 16 ft 4 kts 347°
2026-05-04 00:17 26.07583 -80.16643 16 ft 0 kts 360°
2026-05-04 00:19 26.07591 -80.16643 15 ft 9 kts 360°
2026-05-04 00:19 26.07667 -80.16636 14 ft 11 kts 25°
2026-05-04 00:20 26.07694 -80.16563 15 ft 11 kts 88°
2026-05-04 00:20 26.07694 -80.16348 20 ft 61 kts 90°
2026-05-04 00:20 26.07690 -80.15605 10 ft 129 kts 90°
2026-05-04 00:20 26.07686 -80.14393 23 ft 183 kts 90°
2026-05-04 00:21 26.07687 -80.12881 395 ft 204 kts 89°
2026-05-04 00:21 26.07704 -80.11176 817 ft 233 kts 84°
2026-05-04 00:21 26.07844 -80.09327 1420 ft 246 kts 79°
2026-05-04 00:21 26.08353 -80.07547 2145 ft 241 kts 66°
2026-05-04 00:22 26.09300 -80.06057 2794 ft 234 kts 36°
2026-05-04 00:22 26.10745 -80.05271 3348 ft 234 kts 17°
2026-05-04 00:22 26.12312 -80.04740 3795 ft 238 kts 14°
2026-05-04 00:22 26.13952 -80.04226 4014 ft 255 kts 11°
2026-05-04 00:23 26.15738 -80.04049 4265 ft 255 kts 350°
2026-05-04 00:23 26.17464 -80.04493 4770 ft 256 kts 341°
2026-05-04 00:23 26.19192 -80.05066 5203 ft 261 kts 340°
2026-05-04 00:23 26.20948 -80.05649 5657 ft 265 kts 340°
2026-05-04 00:24 26.22735 -80.06236 6098 ft 269 kts 338°
2026-05-04 00:24 26.24436 -80.07092 6521 ft 268 kts 320°
2026-05-04 00:24 26.25524 -80.08689 6903 ft 258 kts 284°
2026-05-04 00:24 26.25656 -80.10653 7395 ft 254 kts 266°
2026-05-04 00:25 26.25624 -80.12615 7812 ft 258 kts 272°
2026-05-04 00:25 26.25923 -80.14593 8252 ft 261 kts 283°
2026-05-04 00:25 26.26437 -80.16539 8710 ft 262 kts 282°
2026-05-04 00:25 26.26726 -80.18547 9159 ft 262 kts 272°
2026-05-04 00:26 26.26821 -80.20573 9597 ft 262 kts 271°
2026-05-04 00:26 26.26913 -80.22613 10046 ft 263 kts 272°
2026-05-04 00:26 26.27048 -80.24646 10461 ft 264 kts 274°
2026-05-04 00:26 26.27227 -80.26687 10886 ft 264 kts 275°
2026-05-04 00:27 26.27438 -80.28696 11310 ft 265 kts 275°
2026-05-04 00:27 26.27675 -80.30729 11745 ft 265 kts 276°
2026-05-04 00:27 26.27929 -80.32767 12184 ft 265 kts 276°
2026-05-04 00:27 26.28194 -80.34798 12630 ft 265 kts 276°
2026-05-04 00:28 26.28466 -80.36828 13082 ft 264 kts 276°
2026-05-04 00:28 26.28743 -80.38859 13522 ft 266 kts 276°
2026-05-04 00:28 26.29027 -80.40916 13953 ft 271 kts 276°
2026-05-04 00:28 26.29318 -80.43011 14377 ft 275 kts 276°
2026-05-04 00:29 26.29615 -80.45136 14801 ft 279 kts 276°
2026-05-04 00:29 26.29916 -80.47284 15229 ft 283 kts 276°
2026-05-04 00:29 26.30223 -80.49466 15670 ft 286 kts 276°
2026-05-04 00:29 26.30533 -80.51675 16109 ft 290 kts 276°
2026-05-04 00:30 26.30843 -80.53875 16550 ft 291 kts 276°
2026-05-04 00:30 26.31158 -80.56112 16999 ft 292 kts 276°
2026-05-04 00:30 26.31473 -80.58353 17457 ft 293 kts 275°
2026-05-04 00:30 26.31789 -80.60602 17921 ft 293 kts 275°
2026-05-04 00:31 26.32104 -80.62846 18377 ft 293 kts 275°
2026-05-04 00:31 26.32417 -80.65085 18786 ft 292 kts 275°
2026-05-04 00:31 26.32730 -80.67321 19185 ft 292 kts 275°
2026-05-04 00:31 26.33042 -80.69557 19597 ft 292 kts 275°
2026-05-04 00:32 26.33354 -80.71794 20018 ft 292 kts 275°
2026-05-04 00:32 26.33666 -80.74034 20442 ft 292 kts 274°
2026-05-04 00:32 26.33977 -80.76273 20875 ft 293 kts 274°
2026-05-04 00:32 26.34289 -80.78513 21308 ft 292 kts 274°
2026-05-04 00:33 26.34600 -80.80756 21752 ft 292 kts 274°
2026-05-04 00:33 26.35218 -80.85213 22655 ft 289 kts 274°
2026-05-04 00:33 26.35524 -80.87422 23120 ft 288 kts 274°
2026-05-04 00:34 26.35828 -80.89622 23584 ft 286 kts 274°
2026-05-04 00:34 26.36217 -80.91769 23937 ft 290 kts 284°
2026-05-04 00:34 26.37288 -80.93738 24233 ft 303 kts 301°
2026-05-04 00:34 26.38739 -80.95441 24705 ft 304 kts 306°
2026-05-04 00:35 26.40299 -80.97046 25068 ft 303 kts 307°
2026-05-04 00:35 26.41851 -80.98609 25482 ft 299 kts 307°
2026-05-04 00:35 26.43398 -81.00202 25535 ft 309 kts 306°
2026-05-04 00:35 26.44993 -81.01875 25548 ft 320 kts 307°
2026-05-04 00:36 26.46640 -81.03606 25625 ft 329 kts 307°
2026-05-04 00:36 26.48332 -81.05385 25685 ft 339 kts 307°
2026-05-04 00:36 26.50068 -81.07211 25800 ft 347 kts 307°
2026-05-04 00:36 26.51815 -81.09045 26073 ft 349 kts 307°
2026-05-04 00:37 26.53585 -81.10902 26476 ft 347 kts 307°
2026-05-04 00:37 26.55339 -81.12745 26926 ft 344 kts 307°
2026-05-04 00:37 26.57073 -81.14572 27359 ft 342 kts 307°
2026-05-04 00:37 26.58801 -81.16397 27731 ft 341 kts 307°
2026-05-04 00:38 26.60527 -81.18221 28090 ft 341 kts 306°
2026-05-04 00:38 26.62242 -81.20032 28511 ft 338 kts 306°
2026-05-04 00:38 26.63947 -81.21831 28933 ft 335 kts 306°
2026-05-04 00:38 26.65638 -81.23621 29285 ft 334 kts 306°
2026-05-04 00:39 26.67325 -81.25413 29589 ft 334 kts 306°
2026-05-04 00:39 26.68986 -81.27179 29956 ft 332 kts 306°
2026-05-04 00:39 26.70656 -81.28953 30313 ft 329 kts 306°
2026-05-04 00:39 26.72317 -81.30720 30537 ft 329 kts 305°
2026-05-04 00:40 26.73987 -81.32500 30681 ft 332 kts 305°
2026-05-04 00:40 26.75661 -81.34287 30853 ft 333 kts 305°
2026-05-04 00:40 26.77321 -81.36055 31102 ft 332 kts 305°
2026-05-04 00:41 26.80675 -81.39628 31027 ft 331 kts 305°
2026-05-04 00:41 26.83976 -81.43141 30997 ft 327 kts 304°
2026-05-04 00:42 26.87290 -81.46689 31041 ft 333 kts 305°
2026-05-04 00:42 26.90644 -81.50274 31042 ft 332 kts 305°
2026-05-04 00:43 26.93964 -81.53818 31048 ft 329 kts 305°
2026-05-04 00:43 26.97277 -81.57362 31049 ft 328 kts 304°
2026-05-04 00:44 27.00581 -81.60904 31051 ft 329 kts 304°
2026-05-04 00:44 27.03899 -81.64464 31036 ft 330 kts 304°
2026-05-04 00:45 27.07205 -81.68011 31022 ft 331 kts 304°
2026-05-04 00:45 27.10538 -81.71590 31022 ft 332 kts 304°
2026-05-04 00:46 27.13305 -81.74563 31070 ft 331 kts 304°
2026-05-04 00:46 27.16634 -81.78144 31083 ft 330 kts 304°
2026-05-04 00:47 27.19962 -81.81727 31078 ft 330 kts 304°
2026-05-04 00:47 27.23285 -81.85309 31075 ft 330 kts 304°
2026-05-04 00:48 27.26601 -81.88885 31068 ft 329 kts 304°
2026-05-04 00:48 27.29884 -81.92431 31063 ft 328 kts 304°
2026-05-04 00:49 27.33184 -81.95988 31050 ft 327 kts 304°
2026-05-04 00:49 27.36474 -81.99523 31023 ft 327 kts 304°
2026-05-04 00:50 27.39739 -82.03023 31014 ft 326 kts 304°
2026-05-04 00:50 27.43017 -82.06531 31036 ft 325 kts 304°
2026-05-04 00:51 27.46302 -82.10048 31063 ft 326 kts 304°
2026-05-04 00:51 27.49590 -82.13569 31078 ft 326 kts 304°
2026-05-04 00:52 27.52886 -82.17103 31076 ft 327 kts 304°
2026-05-04 00:52 27.56172 -82.20630 31074 ft 327 kts 304°
2026-05-04 00:53 27.59470 -82.24175 31073 ft 327 kts 304°
2026-05-04 00:53 27.62765 -82.27717 31059 ft 326 kts 304°
2026-05-04 00:54 27.66055 -82.31255 31060 ft 326 kts 304°
2026-05-04 00:54 27.69339 -82.34795 31062 ft 334 kts 304°
2026-05-04 00:55 27.72743 -82.38530 31048 ft 349 kts 304°
2026-05-04 00:55 27.75932 -82.42658 30902 ft 342 kts 281°
2026-05-04 00:55 27.76164 -82.45274 30737 ft 337 kts 261°
2026-05-04 00:56 27.75826 -82.47877 30970 ft 337 kts 260°
2026-05-04 00:56 27.75375 -82.53173 31003 ft 338 kts 264°
2026-05-04 00:57 27.75150 -82.58458 31016 ft 337 kts 265°
2026-05-04 00:57 27.74958 -82.63724 31011 ft 335 kts 265°
2026-05-04 00:58 27.74774 -82.68978 31013 ft 334 kts 265°
2026-05-04 00:58 27.74592 -82.74179 31017 ft 334 kts 265°
2026-05-04 00:59 27.74397 -82.79529 31026 ft 348 kts 265°
2026-05-04 00:59 27.74183 -82.85091 31024 ft 361 kts 265°